| time (UTC) | temp F | wind direction | speed knots | gust knots | rain 1hr in | rain 24hr in | rain mn in | humidity % | barometer mb |
| 20260504184447 | 77 | 299 | 4.3 | 6.1 | 0.00 | 0.00 | 0.00 | 35 | 1014.9 |
| 20260504183943 | 77 | 270 | 0.9 | 1.7 | 0.00 | 0.00 | 0.00 | 35 | 1015.0 |
| 20260504183440 | 77 | 263 | 0.9 | 2.6 | 0.00 | 0.00 | 0.00 | 35 | 1015.2 |
| 20260504182938 | 77 | 99 | 0.0 | 3.5 | 0.00 | 0.00 | 0.00 | 35 | 1015.2 |
| 20260504182435 | 77 | 107 | 0.0 | 5.2 | 0.00 | 0.00 | 0.00 | 36 | 1015.0 |
| 20260504181932 | 77 | 180 | 2.6 | 3.5 | 0.00 | 0.00 | 0.00 | 34 | 1015.0 |
| 20260504181429 | 77 | 337 | 0.0 | 5.2 | 0.00 | 0.00 | 0.00 | 36 | 1015.4 |
| 20260504180928 | 77 | 223 | 3.5 | 8.7 | 0.00 | 0.00 | 0.00 | 35 | 1015.3 |
| 20260504180426 | 76 | 192 | 0.0 | 1.7 | 0.00 | 0.00 | 0.00 | 36 | 1015.4 |
| 20260504175924 | 76 | 186 | 0.9 | 3.5 | 0.00 | 0.00 | 0.00 | 35 | 1015.3 |
| 20260504175421 | 76 | 7 | 0.0 | 2.6 | 0.00 | 0.00 | 0.00 | 35 | 1015.3 |
| 20260504174918 | 76 | 117 | 0.9 | 1.7 | 0.00 | 0.00 | 0.00 | 35 | 1015.5 |
| 20260504174416 | 76 | 270 | 0.9 | 2.6 | 0.00 | 0.00 | 0.00 | 36 | 1015.4 |
| 20260504173913 | 76 | 263 | 0.0 | 2.6 | 0.00 | 0.00 | 0.00 | 37 | 1015.6 |
| 20260504173409 | 76 | 232 | 5.2 | 5.2 | 0.00 | 0.00 | 0.00 | 37 | 1015.7 |
| 20260504172907 | 75 | 231 | 2.6 | 3.5 | 0.00 | 0.00 | 0.00 | 35 | 1015.6 |
| 20260504172403 | 75 | 350 | 1.7 | 3.5 | 0.00 | 0.00 | 0.00 | 36 | 1015.8 |
| 20260504171859 | 75 | 299 | 1.7 | 6.1 | 0.00 | 0.00 | 0.00 | 36 | 1015.7 |
| 20260504171357 | 75 | 351 | 1.7 | 3.5 | 0.00 | 0.00 | 0.00 | 36 | 1015.8 |
| 20260504170853 | 75 | 321 | 2.6 | 3.5 | 0.00 | 0.00 | 0.00 | 36 | 1015.8 |
| 20260504170350 | 74 | 97 | 0.9 | 2.6 | 0.00 | 0.00 | 0.00 | 37 | 1016.0 |
| 20260504160309 | 72 | 103 | 0.0 | 3.5 | 0.00 | 0.00 | 0.00 | 38 | 1017.2 |
| 20260504150734 | 68 | 173 | 0.9 | 3.5 | 0.00 | 0.00 | 0.00 | 49 | 1017.4 |
| 20260504150231 | 68 | 20 | 2.6 | 2.6 | 0.00 | 0.00 | 0.00 | 48 | 1017.4 |
| 20260504141200 | 63 | 66 | 0.0 | 2.6 | 0.00 | 0.00 | 0.00 | 61 | 1017.0 |
| 20260504140657 | 63 | 270 | 0.0 | 0.9 | 0.00 | 0.00 | 0.00 | 61 | 1016.9 |
| 20260504140152 | 62 | 194 | 0.9 | 2.6 | 0.00 | 0.00 | 0.00 | 62 | 1016.9 |
| 20260504130620 | 57 | 279 | 0.0 | 0.9 | 0.00 | 0.00 | 0.00 | 72 | 1017.3 |
| 20260504130117 | 57 | 90 | 0.0 | 1.7 | 0.00 | 0.00 | 0.00 | 72 | 1017.4 |
| 20260504110508 | 43 | 90 | 0.0 | 0.0 | 0.00 | 0.00 | 0.00 | 75 | 1017.2 |
| 20260504100430 | 43 | 111 | 0.0 | 0.0 | 0.00 | 0.00 | 0.00 | 73 | 1017.2 |
| 20260504081824 | 43 | 66 | 0.0 | 0.9 | 0.00 | 0.00 | 0.00 | 69 | 1017.1 |
| 20260504081320 | 43 | 23 | 0.0 | 0.0 | 0.00 | 0.00 | 0.00 | 69 | 1017.1 |
| 20260504080816 | 44 | 23 | 0.0 | 0.0 | 0.00 | 0.00 | 0.00 | 69 | 1016.8 |
| 20260504080314 | 44 | 23 | 0.0 | 0.0 | 0.00 | 0.00 | 0.00 | 69 | 1017.0 |
| 20260504070241 | 45 | 75 | 0.0 | 0.0 | 0.00 | 0.00 | 0.00 | 66 | 1016.8 |
| 20260504060201 | 48 | 162 | 0.0 | 0.9 | 0.00 | 0.00 | 0.00 | 63 | 1017.0 |
| 20260504050629 | 47 | 145 | 0.0 | 0.9 | 0.00 | 0.00 | 0.00 | 63 | 1017.4 |
| 20260504050126 | 47 | 114 | 0.0 | 0.9 | 0.00 | 0.00 | 0.00 | 63 | 1017.4 |
| 20260504045624 | 48 | 120 | 0.0 | 0.9 | 0.00 | 0.00 | 0.00 | 62 | 1017.3 |
| 20260504045118 | 48 | 106 | 0.9 | 0.9 | 0.00 | 0.00 | 0.00 | 62 | 1017.4 |
| 20260504044616 | 48 | 103 | 0.0 | 0.9 | 0.00 | 0.00 | 0.00 | 62 | 1017.2 |
| 20260504044113 | 48 | 106 | 0.0 | 0.9 | 0.00 | 0.00 | 0.00 | 62 | 1017.2 |
| 20260504043610 | 49 | 120 | 0.0 | 2.6 | 0.00 | 0.00 | 0.00 | 62 | 1017.2 |
| 20260504043107 | 48 | 145 | 0.0 | 1.7 | 0.00 | 0.00 | 0.00 | 62 | 1017.1 |
| 20260504042604 | 48 | 145 | 0.0 | 0.9 | 0.00 | 0.00 | 0.00 | 62 | 1017.2 |
| 20260504042101 | 48 | 99 | 0.0 | 1.7 | 0.00 | 0.00 | 0.00 | 62 | 1017.1 |
| 20260504041556 | 48 | 120 | 0.0 | 1.7 | 0.00 | 0.00 | 0.00 | 62 | 1017.3 |
| 20260504041053 | 48 | 114 | 0.0 | 0.9 | 0.00 | 0.00 | 0.00 | 62 | 1017.1 |
| 20260504040550 | 48 | 114 | 0.0 | 0.9 | 0.00 | 0.00 | 0.00 | 62 | 1017.1 |
| 20260504040047 | 48 | 145 | 0.0 | 1.7 | 0.00 | 0.00 | 0.00 | 62 | 1017.3 |
| 20260504035544 | 47 | 120 | 0.0 | 1.7 | 0.00 | 0.00 | 0.00 | 61 | 1017.3 |
| 20260504035040 | 46 | 114 | 0.0 | 0.9 | 0.00 | 0.00 | 0.00 | 61 | 1017.3 |
| 20260504034538 | 46 | 157 | 0.0 | 0.9 | 0.00 | 0.00 | 0.00 | 60 | 1017.2 |
| 20260504034035 | 46 | 157 | 0.0 | 0.9 | 0.00 | 0.00 | 0.00 | 60 | 1017.2 |
| 20260504033533 | 46 | 145 | 0.0 | 0.0 | 0.00 | 0.00 | 0.00 | 60 | 1017.2 |
| 20260504033030 | 47 | 151 | 0.0 | 0.0 | 0.00 | 0.00 | 0.00 | 60 | 1017.2 |
| 20260504032527 | 47 | 106 | 0.0 | 0.0 | 0.00 | 0.00 | 0.00 | 60 | 1017.0 |
| 20260504032024 | 47 | 106 | 0.0 | 0.0 | 0.00 | 0.00 | 0.00 | 60 | 1017.1 |
| 20260504031521 | 46 | 157 | 0.0 | 0.9 | 0.00 | 0.00 | 0.00 | 59 | 1017.1 |
| 20260504031017 | 47 | 154 | 0.0 | 0.9 | 0.00 | 0.00 | 0.00 | 58 | 1017.3 |
| 20260504030514 | 47 | 106 | 0.0 | 0.0 | 0.00 | 0.00 | 0.00 | 58 | 1017.1 |
| 20260504030010 | 47 | 106 | 0.0 | 0.0 | 0.00 | 0.00 | 0.00 | 58 | 1017.5 |
| 20260504025507 | 47 | 106 | 0.0 | 0.0 | 0.00 | 0.00 | 0.00 | 57 | 1017.2 |
| 20260504025004 | 47 | 106 | 0.0 | 0.0 | 0.00 | 0.00 | 0.00 | 57 | 1017.1 |
| 20260504024502 | 47 | 106 | 0.0 | 0.0 | 0.00 | 0.00 | 0.00 | 57 | 1017.1 |
| 20260504023958 | 48 | 106 | 0.0 | 0.0 | 0.00 | 0.00 | 0.00 | 56 | 1017.0 |
| 20260504023455 | 48 | 106 | 0.0 | 0.0 | 0.00 | 0.00 | 0.00 | 56 | 1017.2 |
| 20260504022950 | 48 | 106 | 0.0 | 0.0 | 0.00 | 0.00 | 0.00 | 55 | 1017.4 |
| 20260504022446 | 48 | 165 | 0.0 | 0.0 | 0.00 | 0.00 | 0.00 | 55 | 1017.1 |
| 20260504021943 | 48 | 165 | 0.0 | 0.0 | 0.00 | 0.00 | 0.00 | 54 | 1016.9 |
| 20260504021441 | 48 | 165 | 0.0 | 0.0 | 0.00 | 0.00 | 0.00 | 54 | 1016.9 |
| 20260504020938 | 48 | 165 | 0.0 | 0.0 | 0.00 | 0.00 | 0.00 | 54 | 1017.0 |
| 20260504020434 | 49 | 165 | 0.0 | 0.0 | 0.00 | 0.00 | 0.00 | 54 | 1016.8 |
| 20260504015931 | 48 | 165 | 0.0 | 0.0 | 0.00 | 0.00 | 0.00 | 53 | 1016.6 |
| 20260504015427 | 49 | 165 | 0.0 | 0.0 | 0.00 | 0.00 | 0.00 | 53 | 1016.8 |
| 20260504014923 | 49 | 165 | 0.0 | 0.0 | 0.00 | 0.00 | 0.00 | 53 | 1016.4 |
| 20260504014419 | 49 | 165 | 0.0 | 0.0 | 0.00 | 0.00 | 0.00 | 53 | 1016.5 |
| 20260504013916 | 49 | 165 | 0.0 | 0.0 | 0.00 | 0.00 | 0.00 | 52 | 1016.5 |
| 20260504013415 | 49 | 165 | 0.0 | 0.0 | 0.00 | 0.00 | 0.00 | 51 | 1016.4 |
| 20260504012910 | 49 | 165 | 0.0 | 0.9 | 0.00 | 0.00 | 0.00 | 51 | 1016.6 |
| 20260504012409 | 50 | 166 | 0.0 | 0.9 | 0.00 | 0.00 | 0.00 | 50 | 1016.8 |
| 20260504011906 | 50 | 165 | 0.0 | 0.0 | 0.00 | 0.00 | 0.00 | 49 | 1016.5 |
| 20260504011403 | 50 | 165 | 0.0 | 0.0 | 0.00 | 0.00 | 0.00 | 49 | 1016.6 |
| 20260504010858 | 50 | 352 | 0.0 | 0.0 | 0.00 | 0.00 | 0.00 | 48 | 1016.4 |
| 20260504010354 | 51 | 352 | 0.0 | 0.0 | 0.00 | 0.00 | 0.00 | 47 | 1016.4 |
| 20260504005851 | 51 | 352 | 0.0 | 0.0 | 0.00 | 0.00 | 0.00 | 47 | 1016.4 |
| 20260504005348 | 51 | 352 | 0.0 | 0.0 | 0.00 | 0.00 | 0.00 | 46 | 1016.5 |
| 20260504004845 | 52 | 352 | 0.0 | 0.0 | 0.00 | 0.00 | 0.00 | 46 | 1016.4 |
| 20260504004343 | 52 | 352 | 0.0 | 0.0 | 0.00 | 0.00 | 0.00 | 45 | 1016.3 |
| 20260504003839 | 53 | 352 | 0.0 | 0.0 | 0.00 | 0.00 | 0.00 | 45 | 1016.2 |
| 20260504003336 | 53 | 352 | 0.0 | 0.0 | 0.00 | 0.00 | 0.00 | 44 | 1016.2 |
| 20260504002833 | 53 | 352 | 0.0 | 0.0 | 0.00 | 0.00 | 0.00 | 43 | 1016.1 |
| 20260504002329 | 54 | 352 | 0.0 | 0.0 | 0.00 | 0.00 | 0.00 | 43 | 1016.2 |
| 20260504001827 | 55 | 352 | 0.0 | 0.0 | 0.00 | 0.00 | 0.00 | 42 | 1016.3 |
| 20260504001324 | 55 | 352 | 0.0 | 0.0 | 0.00 | 0.00 | 0.00 | 41 | 1016.1 |
| 20260504000821 | 55 | 352 | 0.0 | 0.0 | 0.00 | 0.00 | 0.00 | 41 | 1016.1 |
| 20260504000318 | 56 | 352 | 0.0 | 0.0 | 0.00 | 0.00 | 0.00 | 40 | 1015.9 |
| 20260503235816 | 57 | 352 | 0.0 | 0.0 | 0.00 | 0.00 | 0.00 | 40 | 1015.8 |
| 20260503235313 | 57 | 352 | 0.0 | 0.0 | 0.00 | 0.00 | 0.00 | 39 | 1016.0 |
| 20260503234810 | 57 | 352 | 0.0 | 0.0 | 0.00 | 0.00 | 0.00 | 38 | 1016.0 |
| 20260503234308 | 58 | 352 | 0.0 | 0.0 | 0.00 | 0.00 | 0.00 | 37 | 1015.9 |
| 20260503233806 | 59 | 148 | 1.7 | 1.7 | 0.00 | 0.00 | 0.00 | 37 | 1016.0 |
| 20260503233301 | 59 | 240 | 0.0 | 0.9 | 0.00 | 0.00 | 0.00 | 36 | 1016.0 |
| 20260503232758 | 60 | 203 | 0.0 | 0.0 | 0.00 | 0.00 | 0.00 | 35 | 1016.0 |
| 20260503232256 | 60 | 203 | 0.0 | 0.0 | 0.00 | 0.00 | 0.00 | 34 | 1016.0 |
| 20260503231754 | 61 | 270 | 0.0 | 0.0 | 0.00 | 0.00 | 0.00 | 33 | 1015.9 |
| 20260503231250 | 61 | 194 | 0.0 | 1.7 | 0.00 | 0.00 | 0.00 | 32 | 1016.1 |
| 20260503230746 | 62 | 279 | 0.0 | 2.6 | 0.00 | 0.00 | 0.00 | 31 | 1015.9 |
| 20260503230244 | 62 | 248 | 0.0 | 0.0 | 0.00 | 0.00 | 0.00 | 32 | 1016.0 |
| 20260503225741 | 62 | 248 | 0.0 | 1.7 | 0.00 | 0.00 | 0.00 | 31 | 1015.8 |
| 20260503225241 | 62 | 180 | 1.7 | 1.7 | 0.00 | 0.00 | 0.00 | 30 | 1015.9 |
| 20260503224738 | 62 | 203 | 0.0 | 5.2 | 0.00 | 0.00 | 0.00 | 30 | 1015.9 |
| 20260503224236 | 62 | 171 | 0.0 | 4.3 | 0.00 | 0.00 | 0.00 | 31 | 1015.9 |
| 20260503223733 | 62 | 279 | 0.0 | 3.5 | 0.00 | 0.00 | 0.00 | 31 | 1016.3 |
| 20260503223231 | 62 | 270 | 0.0 | 0.9 | 0.00 | 0.00 | 0.00 | 31 | 1016.2 |
| 20260503222727 | 62 | 81 | 0.0 | 0.9 | 0.00 | 0.00 | 0.00 | 31 | 1016.2 |
| 20260503222225 | 62 | 278 | 0.0 | 0.0 | 0.00 | 0.00 | 0.00 | 31 | 1016.3 |
| 20260503221723 | 62 | 278 | 0.0 | 1.7 | 0.00 | 0.00 | 0.00 | 31 | 1016.3 |
| 20260503221221 | 62 | 203 | 0.0 | 1.7 | 0.00 | 0.00 | 0.00 | 30 | 1016.4 |
| 20260503220717 | 62 | 246 | 0.0 | 1.7 | 0.00 | 0.00 | 0.00 | 30 | 1016.4 |
| 20260503220214 | 63 | 279 | 0.0 | 1.7 | 0.00 | 0.00 | 0.00 | 30 | 1016.5 |
| 20260503215710 | 63 | 294 | 0.0 | 0.9 | 0.00 | 0.00 | 0.00 | 30 | 1016.6 |
| 20260503215207 | 63 | 279 | 0.0 | 0.9 | 0.00 | 0.00 | 0.00 | 30 | 1016.5 |
| 20260503214700 | 63 | 84 | 0.0 | 2.6 | 0.00 | 0.00 | 0.00 | 29 | 1016.5 |
| 20260503214156 | 63 | 180 | 0.0 | 5.2 | 0.00 | 0.00 | 0.00 | 28 | 1016.7 |
| 20260503213655 | 63 | 185 | 2.6 | 4.3 | 0.00 | 0.00 | 0.00 | 30 | 1016.8 |
| 20260503213151 | 63 | 246 | 0.0 | 2.6 | 0.00 | 0.00 | 0.00 | 30 | 1016.6 |
| 20260503212649 | 63 | 352 | 1.7 | 4.3 | 0.00 | 0.00 | 0.00 | 29 | 1016.9 |
| 20260503212146 | 63 | 270 | 0.9 | 5.2 | 0.00 | 0.00 | 0.00 | 29 | 1016.7 |
| 20260503211644 | 63 | 283 | 0.0 | 3.5 | 0.00 | 0.00 | 0.00 | 30 | 1016.7 |
| 20260503211139 | 63 | 109 | 0.0 | 1.7 | 0.00 | 0.00 | 0.00 | 30 | 1016.6 |
| 20260503210635 | 63 | 288 | 2.6 | 7.8 | 0.00 | 0.00 | 0.00 | 29 | 1016.8 |
| 20260503210132 | 62 | 210 | 1.7 | 5.2 | 0.00 | 0.00 | 0.00 | 29 | 1016.9 |
| 20260503205628 | 62 | 186 | 0.9 | 4.3 | 0.00 | 0.00 | 0.00 | 29 | 1017.0 |
| 20260503205124 | 62 | 6 | 0.9 | 3.5 | 0.00 | 0.00 | 0.00 | 31 | 1016.8 |
| 20260503204621 | 62 | 14 | 0.9 | 1.7 | 0.00 | 0.00 | 0.00 | 30 | 1016.8 |
| 20260503204119 | 62 | 358 | 5.2 | 5.2 | 0.00 | 0.00 | 0.00 | 30 | 1016.8 |
| 20260503203616 | 62 | 65 | 1.7 | 1.7 | 0.00 | 0.00 | 0.00 | 30 | 1016.9 |
| 20260503203113 | 62 | 18 | 0.0 | 2.6 | 0.00 | 0.00 | 0.00 | 29 | 1017.1 |
| 20260503202611 | 62 | 303 | 0.0 | 4.3 | 0.00 | 0.00 | 0.00 | 30 | 1017.0 |
| 20260503202108 | 62 | 26 | 1.7 | 4.3 | 0.00 | 0.00 | 0.00 | 30 | 1017.1 |
| 20260503201606 | 63 | 339 | 2.6 | 2.6 | 0.00 | 0.00 | 0.00 | 29 | 1017.2 |
| 20260503201103 | 63 | 12 | 0.0 | 3.5 | 0.00 | 0.00 | 0.00 | 30 | 1017.3 |
| 20260503200559 | 63 | 180 | 2.6 | 5.2 | 0.00 | 0.00 | 0.00 | 29 | 1017.5 |
| 20260503200056 | 62 | 159 | 1.7 | 3.5 | 0.00 | 0.00 | 0.00 | 30 | 1017.4 |
| 20260503195553 | 63 | 29 | 0.0 | 2.6 | 0.00 | 0.00 | 0.00 | 30 | 1017.5 |
| 20260503195050 | 63 | 308 | 4.3 | 4.3 | 0.00 | 0.00 | 0.00 | 29 | 1017.3 |
| 20260503194547 | 64 | 303 | 2.6 | 3.5 | 0.00 | 0.00 | 0.00 | 30 | 1017.7 |
| 20260503194047 | 64 | 116 | 2.6 | 5.2 | 0.00 | 0.00 | 0.00 | 30 | 1017.3 |
| 20260503193544 | 64 | 240 | 0.0 | 3.5 | 0.00 | 0.00 | 0.00 | 31 | 1017.6 |
| 20260503193039 | 63 | 217 | 3.5 | 6.1 | 0.00 | 0.00 | 0.00 | 30 | 1017.6 |
| 20260503192536 | 63 | 199 | 2.6 | 3.5 | 0.00 | 0.00 | 0.00 | 30 | 1017.7 |
| 20260503192031 | 64 | 10 | 0.0 | 4.3 | 0.00 | 0.00 | 0.00 | 29 | 1018.0 |
| 20260503191528 | 63 | 288 | 1.7 | 1.7 | 0.00 | 0.00 | 0.00 | 32 | 1017.8 |
| 20260503191025 | 63 | 151 | 0.9 | 1.7 | 0.00 | 0.00 | 0.00 | 31 | 1017.9 |
| 20260503190522 | 63 | 8 | 0.0 | 1.7 | 0.00 | 0.00 | 0.00 | 31 | 1018.0 |
| 20260503190019 | 63 | 126 | 0.0 | 2.6 | 0.00 | 0.00 | 0.00 | 32 | 1018.1 |
| 20260503185515 | 63 | 23 | 0.9 | 2.6 | 0.00 | 0.00 | 0.00 | 31 | 1018.3 |
| 20260503185010 | 64 | 300 | 2.6 | 2.6 | 0.00 | 0.00 | 0.00 | 31 | 1018.3 |